Tracking 30970 objects as of 3-Jul-2025
HD Live streaming from Space Station
objects crossing your sky now

ONEWEB-0039

Track ONEWEB-0039 now!
10-day predictions
ONEWEB-0039 is classified as:


NORAD ID: 45146
Int'l Code: 2020-008R
Perigee: 1,227.6 km
Apogee: 1,230.1 km
Inclination: 87.9 °
Period: 109.9 minutes
Semi major axis: 7599 km
RCS: Unknown
Launch date: February 6, 2020
Source: United Kingdom (UK)
Launch site: TYURATAM MISSILE AND SPACE COMPLEX (TTMTR)
Your satellite tracking list
STORK-2
Track 1 satellite(s)




NASA's NSSDC Master Catalog

Two Line Element Set (TLE):
1 45146U 20008R   25183.79695616 -.00000148  00000-0 -45919-3 0  9994
2 45146  87.8828 105.9352 0001608  94.7187 265.4123 13.10372024262409
Source of the keplerian elements: AFSPC